This demonstration page uses our WeatherBlox Daily Observations layout. Learn more.

Left ArrowRight Arrow

53.62937, 11.41316

Hourly Observations for April 10, 2018

Temp ( °F °C ) Dew Point ( °F °C ) Humidity (%) Winds ( mph kmh ) Pressure ( in mb ) Visibility ( mi km ) Precip ( " mm )
6:50 am 06:50 Mostly Sunny 45 7 43 6 93 93 NNE 5 7 29.74 1007 4 7 N/A
7:20 am 07:20 Mostly Sunny 45 7 43 6 93 93 NNE 3 6 29.74 1007 4 7 N/A
7:50 am 07:50 Mostly Sunny 45 7 43 6 93 93 NNE 6 9 29.74 1007 4 7 N/A
8:20 am 08:20 Mostly Sunny 46 8 43 6 87 87 NNE 7 11 29.74 1007 4 7 N/A
8:50 am 08:50 Mostly Sunny 46 8 43 6 87 87 NE 8 13 29.74 1007 4 7 N/A
9:20 am 09:20 Mostly Sunny 48 9 43 6 82 82 NE 9 15 29.74 1007 4 7 N/A
9:50 am 09:50 Mostly Sunny 52 11 45 7 77 77 NE 12 19 29.74 1007 6 9 N/A
10:20 am 10:20 Mostly Sunny 54 12 43 6 67 67 NNE 12 19 29.74 1007 6 9 N/A
10:50 am 10:50 Mostly Sunny 54 12 45 7 72 72 NNE 13 20 29.77 1008 6 9 N/A
11:20 am 11:20 Mostly Sunny 52 11 43 6 72 72 NNE 14 22 29.77 1008 6 9 N/A
11:50 am 11:50 Mostly Sunny 50 10 43 6 76 76 NNE 16 26 29.77 1008 6 9 N/A
12:20 pm 12:20 Mostly Sunny 48 9 43 6 82 82 NNE 17 28 29.77 1008 6 9 N/A
12:50 pm 12:50 Mostly Sunny 48 9 41 5 76 76 NNE 16 26 29.77 1008 6 9 N/A
1:20 pm 13:20 Mostly Sunny 50 10 43 6 76 76 NNE 17 28 29.77 1008 6 9 N/A
1:50 pm 13:50 Mostly Sunny 48 9 41 5 76 76 NNE 18 30 29.80 1009 5 8 N/A
2:20 pm 14:20 Mostly Sunny 48 9 41 5 76 76 NNE 21 33 29.80 1009 5 8 N/A
2:50 pm 14:50 Mostly Sunny 48 9 41 5 76 76 NNE 20 31 29.80 1009 6 9 N/A
3:20 pm 15:20 Mostly Sunny 48 9 41 5 76 76 NNE 20 31 29.80 1009 6 9 N/A
3:50 pm 15:50 Mostly Sunny 48 9 43 6 82 82 NNE 18 30 29.80 1009 6 9 N/A
4:20 pm 16:20 Mostly Sunny 48 9 41 5 76 76 NNE 17 28 29.80 1009 7 11 N/A
4:50 pm 16:50 Mostly Sunny 46 8 41 5 82 82 NNE 18 30 29.80 1009 7 11 N/A
5:20 pm 17:20 Mostly Sunny 46 8 41 5 82 82 NNE 17 28 29.80 1009 7 11 N/A
5:50 pm 17:50 Mostly Sunny 46 8 41 5 82 82 NNE 15 24 29.80 1009 7 11 N/A
6:20 pm 18:20 Mostly Sunny 45 7 41 5 87 87 NE 16 26 29.80 1009 7 11 N/A
6:50 pm 18:50 Mostly Sunny 45 7 43 6 93 93 NE 16 26 29.80 1009 7 11 N/A
7:20 pm 19:20 Mostly Sunny 45 7 43 6 93 93 NE 14 22 29.80 1009 7 11 N/A
7:50 pm 19:50 Mostly Cloudy 45 7 43 6 93 93 NE 14 22 29.83 1010 5 8 N/A
8:20 pm 20:20 Mostly Cloudy 45 7 43 6 93 93 NE 14 22 29.83 1010 4 7 N/A
8:50 pm 20:50 Mostly Cloudy 45 7 43 6 93 93 NE 14 22 29.83 1010 5 8 N/A

Powered by AerisWeather